BIRD 2

Last updated on Thu Oct 12 2023 00:03:27 GMT+0000 (Coordinated Universal Time)

1 26959U 01049C 23284.08619489 .06935024 27864-5 38094-3 0 9997 2 26959 97.7693 66.3671 0010118 271.3565 88.6575 16.41532284528148

Satellite not in orbit

BIRD 2